Flag for United Kingdom Weather past 2 weeks in Liverpool, England, United Kingdom

Now
52 °F

Passing clouds.


Feels Like: 47 °F
Forecast: 51 / 54 °F
Wind: 13 mph from Northwest

Location: Liverpool Airport

Current Time: May 25, 2015 at 4:51:13 AM

Latest Report: May 25, 2015 at 4:20 AM


Visibility: N/A

Pressure: 30.09 "Hg

Humidity: 77%

Dew point: 45 °F

Location of LiverpoolLocation

Historic Weather in Liverpool — Graph

°F

Liverpool temperature yesterday

Maximum temperature yesterday: 57 °F (at 4:20 PM)
Minimum temperature yesterday: 50 °F (at 12:50 AM)
Average temperature yesterday: 53 °F

Past Weeks' High & Low Weather Summary

 TemperatureHumidityPressure
High63 °F (May 11, 12:50 PM)100% (May 18, 12:50 AM)30.30 "Hg (May 18, 12:50 AM)
Low41 °F (May 15, 5:20 AM)42% (May 13, 3:20 PM)29.47 "Hg (May 18, 11:50 PM)
Average53 °F76%30.04 "Hg
* Reported May 10 3:20 AM — May 25 3:20 AM, Liverpool, Weather by CustomWeather, © 2015

Note: Actual official high and low records may vary slightly from our data, if they occured in-between our weather recording intervals... More about our weather records

Advertising

Liverpool weather history for previous 24 hours

 ConditionsComfort  
Time TempWeatherWind HumidityBarometerVisibility
3:20 AM
Mon, May 25
50 °FPassing clouds.14 mph82%30.12 "HgN/A
2:50 AM52 °FPassing clouds.12 mph82%30.12 "HgN/A
2:20 AM52 °FPassing clouds.9 mph88%30.09 "HgN/A
1:50 AM52 °FPassing clouds.6 mph88%30.12 "HgN/A
1:20 AM50 °FPassing clouds.5 mph94%30.12 "HgN/A
12:50 AM52 °FPassing clouds.6 mph82%30.12 "HgN/A
12:20 AM52 °FPassing clouds.8 mph82%30.12 "HgN/A
11:50 PM
Sun, May 24
52 °FPassing clouds.7 mph82%30.12 "HgN/A
11:20 PM52 °FPassing clouds.8 mph82%30.12 "HgN/A
10:20 PM54 °FPassing clouds.8 mph72%30.12 "HgN/A
9:50 PM54 °FPartly sunny.12 mph67%30.15 "HgN/A
9:20 PM54 °FPartly sunny.10 mph67%30.12 "HgN/A
8:50 PM54 °FPartly sunny.13 mph67%30.12 "HgN/A
8:20 PM52 °FPartly sunny.13 mph72%30.12 "HgN/A
7:50 PM54 °FScattered clouds.13 mph67%30.12 "HgN/A
7:20 PM55 °FScattered clouds.13 mph67%30.12 "HgN/A
6:50 PM55 °FScattered clouds.13 mph67%30.12 "HgN/A
6:20 PM55 °FScattered clouds.14 mph67%30.12 "HgN/A
5:50 PM55 °FScattered clouds.15 mph67%30.12 "HgN/A
5:20 PM55 °FPartly sunny.14 mph67%30.12 "HgN/A
4:50 PM57 °FScattered clouds.17 mph67%30.12 "HgN/A
4:20 PM57 °FPartly sunny.16 mph67%30.12 "HgN/A
3:50 PM55 °FScattered clouds.15 mph67%30.12 "HgN/A
3:20 PM55 °FScattered clouds.17 mph72%30.12 "HgN/A
2:50 PM55 °FScattered clouds.16 mph67%30.12 "HgN/A
2:20 PM55 °FScattered clouds.16 mph67%30.12 "HgN/A
1:50 PM54 °FPartly sunny.14 mph72%30.12 "HgN/A
1:20 PM54 °FPartly sunny.14 mph77%30.12 "HgN/A
12:50 PM54 °FPartly sunny.13 mph72%30.12 "HgN/A
12:20 PM54 °FPartly sunny.13 mph77%30.12 "HgN/A
11:50 AM54 °FBroken clouds.16 mph77%30.09 "HgN/A
11:20 AM54 °FBroken clouds.15 mph88%30.09 "HgN/A
10:50 AM54 °FBroken clouds.15 mph88%30.09 "HgN/A
10:20 AM55 °FBroken clouds.13 mph88%30.09 "HgN/A
9:50 AM54 °FSprinkles. Broken clouds.13 mph100%30.09 "Hg4 mi
9:20 AM55 °FSprinkles. Broken clouds.14 mph94%30.07 "Hg3 mi
8:50 AM55 °FSprinkles. Partly sunny.14 mph94%30.07 "Hg3 mi
8:20 AM54 °FDrizzle. Partly sunny.3 mph100%30.07 "Hg1 mi
7:50 AM52 °FDrizzle. Broken clouds.5 mph100%30.07 "Hg2 mi
7:20 AM52 °FDrizzle. Partly sunny.6 mph100%30.07 "Hg4 mi
6:50 AM54 °FSprinkles. Broken clouds.5 mph88%30.07 "Hg5 mi
6:20 AM54 °FSprinkles. Broken clouds.5 mph88%30.07 "Hg5 mi
5:50 AM52 °FPassing clouds.3 mph94%30.07 "HgN/A
5:20 AM52 °FPassing clouds.3 mph94%30.07 "HgN/A
4:50 AM52 °FPassing clouds.3 mph82%30.07 "HgN/A
4:20 AM52 °FPassing clouds.5 mph82%30.07 "HgN/A
Weather by CustomWeather, © 2015

See weather overviewHow to use our weather pages